�������l�o���
Date,Time,MP-1(��Sv/h),MP-2(��Sv/h),MP-3(��Sv/h),MP-4(��Sv/h),MP-5(��Sv/h),MP-6(��Sv/h),MP-7(��Sv/h),MP-8(��Sv/h),����,����(m/s),���J
2021/06/15,00:00,0.643,0.953,0.601,1.163,0.838,0.378,0.658,0.610,�k�k��,5.7,��
2021/06/15,00:10,0.641,0.956,0.601,1.162,0.838,0.377,0.656,0.612,�k�k��,5.7,��
2021/06/15,00:20,0.642,0.955,0.601,1.166,0.838,0.376,0.658,0.612,�k�k��,5.9,��
2021/06/15,00:30,0.643,0.954,0.600,1.162,0.838,0.377,0.656,0.611,�k�k��,5.3,��
2021/06/15,00:40,0.644,0.955,0.602,1.161,0.839,0.377,0.656,0.611,�k�k��,4.9,��
2021/06/15,00:50,0.642,0.955,0.599,1.167,0.837,0.377,0.657,0.613,�k�k��,4.4,��
2021/06/15,01:00,0.644,0.956,0.601,1.164,0.837,0.376,0.657,0.610,�k�k��,4.2,��
2021/06/15,01:10,0.643,0.954,0.600,1.162,0.835,0.377,0.657,0.611,�k�k��,3.9,��
2021/06/15,01:20,0.641,0.953,0.601,1.165,0.835,0.375,0.657,0.612,�k�k��,4.9,��
2021/06/15,01:30,0.641,0.956,0.601,1.164,0.837,0.377,0.656,0.612,�k�k��,3.2,��
2021/06/15,01:40,0.643,0.954,0.600,1.165,0.835,0.376,0.657,0.612,�k�k��,3.0,��
2021/06/15,01:50,0.640,0.956,0.599,1.164,0.835,0.377,0.655,0.613,�k�k��,2.8,��
2021/06/15,02:00,0.643,0.956,0.601,1.166,0.836,0.377,0.657,0.613,�k�k��,2.3,��
2021/06/15,02:10,0.642,0.954,0.600,1.165,0.834,0.376,0.655,0.610,�k,2.6,��
2021/06/15,02:20,0.642,0.954,0.599,1.163,0.838,0.376,0.656,0.612,�k�k��,4.2,��
2021/06/15,02:30,0.641,0.954,0.598,1.164,0.837,0.376,0.655,0.611,�k�k��,5.1,��
2021/06/15,02:40,0.639,0.955,0.600,1.163,0.835,0.375,0.654,0.610,�k�k��,5.4,�L
2021/06/15,02:50,0.638,0.954,0.600,1.162,0.836,0.374,0.653,0.611,�k�k��,5.8,�L
2021/06/15,03:00,0.641,0.953,0.600,1.165,0.834,0.375,0.654,0.612,�k�k��,5.0,��
2021/06/15,03:10,0.639,0.951,0.599,1.161,0.835,0.376,0.655,0.610,�k,4.9,�L
2021/06/15,03:20,0.638,0.951,0.598,1.161,0.835,0.377,0.653,0.611,�k,5.0,�L
2021/06/15,03:30,0.640,0.953,0.600,1.160,0.835,0.376,0.655,0.612,�k,4.5,��
2021/06/15,03:40,0.641,0.951,0.599,1.163,0.835,0.375,0.657,0.610,�k,3.9,�L
2021/06/15,03:50,0.640,0.951,0.599,1.164,0.834,0.376,0.655,0.612,�k,3.3,�L
2021/06/15,04:00,0.641,0.953,0.600,1.162,0.834,0.376,0.655,0.611,�k,3.1,�L
2021/06/15,04:10,0.640,0.953,0.598,1.162,0.835,0.378,0.655,0.609,�k,3.0,�L
2021/06/15,04:20,0.640,0.952,0.598,1.163,0.834,0.377,0.655,0.610,�k�k��,3.3,�L
2021/06/15,04:30,0.639,0.951,0.598,1.163,0.835,0.376,0.654,0.611,�k�k��,4.1,�L
2021/06/15,04:40,0.641,0.952,0.599,1.161,0.834,0.376,0.654,0.610,�k,3.5,�L
2021/06/15,04:50,0.638,0.951,0.599,1.162,0.834,0.376,0.653,0.610,�k,4.0,�L
2021/06/15,05:00,0.642,0.949,0.599,1.162,0.832,0.376,0.654,0.610,�k,4.2,�L
2021/06/15,05:10,0.640,0.951,0.599,1.161,0.832,0.375,0.656,0.611,�k,3.8,�L
2021/06/15,05:20,0.642,0.948,0.599,1.161,0.836,0.375,0.654,0.611,�k,3.2,�L
2021/06/15,05:30,0.639,0.950,0.600,1.162,0.833,0.378,0.655,0.611,�k,3.1,�L
2021/06/15,05:40,0.638,0.951,0.598,1.159,0.834,0.375,0.654,0.610,�k,4.0,�L
2021/06/15,05:50,0.639,0.947,0.597,1.162,0.835,0.376,0.653,0.610,�k,3.6,�L
2021/06/15,06:00,0.639,0.949,0.600,1.161,0.832,0.376,0.654,0.611,�k,3.2,�L
2021/06/15,06:10,0.640,0.950,0.597,1.161,0.834,0.375,0.653,0.611,�k,3.1,�L
2021/06/15,06:20,0.639,0.948,0.599,1.160,0.833,0.376,0.653,0.610,�k,3.6,�L
2021/06/15,06:30,0.639,0.947,0.598,1.162,0.832,0.377,0.654,0.610,�k�k��,4.7,�L
2021/06/15,06:40,0.639,0.950,0.600,1.160,0.833,0.376,0.655,0.609,�k�k��,4.4,�L
2021/06/15,06:50,0.638,0.948,0.598,1.159,0.834,0.375,0.655,0.612,�k�k��,3.8,�L
2021/06/15,07:00,0.637,0.948,0.596,1.160,0.833,0.376,0.653,0.611,�k,4.1,�L
2021/06/15,07:10,0.637,0.948,0.598,1.158,0.833,0.374,0.655,0.609,�k,3.7,�L
2021/06/15,07:20,0.640,0.948,0.597,1.158,0.834,0.376,0.653,0.612,�k,2.3,�L
2021/06/15,07:30,0.637,0.948,0.597,1.159,0.834,0.374,0.653,0.610,�k,3.0,�L
2021/06/15,07:40,0.640,0.949,0.597,1.160,0.834,0.376,0.654,0.611,�k,3.0,�L
2021/06/15,07:50,0.638,0.947,0.601,1.162,0.831,0.375,0.654,0.611,�k,3.4,��
2021/06/15,08:00,0.638,0.948,0.598,1.160,0.833,0.376,0.656,0.611,�k,3.2,�L
2021/06/15,08:10,0.636,0.949,0.598,1.161,0.833,0.376,0.655,0.611,�k�k��,3.0,��
2021/06/15,08:20,0.639,0.948,0.598,1.161,0.831,0.377,0.653,0.610,�k,3.2,��
2021/06/15,08:30,0.637,0.947,0.598,1.158,0.833,0.374,0.653,0.610,�k,3.1,�L
2021/06/15,08:40,0.639,0.944,0.597,1.159,0.833,0.374,0.652,0.609,�k,3.4,��
2021/06/15,08:50,0.638,0.945,0.598,1.160,0.832,0.374,0.653,0.609,�k�k��,3.0,�L
2021/06/15,09:00,0.638,0.945,0.598,1.160,0.831,0.373,0.653,0.609,�k,3.9,��
2021/06/15,09:10,0.638,0.945,0.596,1.161,0.831,0.374,0.652,0.609,�k,4.1,��
2021/06/15,09:20,0.638,0.944,0.597,1.160,0.831,0.374,0.653,0.607,�k�k��,3.7,��
2021/06/15,09:30,0.639,0.945,0.596,1.160,0.830,0.374,0.654,0.609,�k,4.6,��
2021/06/15,09:40,0.638,0.943,0.595,1.161,0.830,0.374,0.654,0.609,�k,3.9,��
2021/06/15,09:50,0.639,0.945,0.597,1.159,0.830,0.374,0.655,0.609,�k,4.2,��
2021/06/15,10:00,0.639,0.945,0.594,1.161,0.832,0.375,0.655,0.608,�k,3.0,��
2021/06/15,10:10,0.639,0.945,0.596,1.159,0.832,0.375,0.655,0.608,�k,3.9,��
2021/06/15,10:20,0.640,0.943,0.595,1.161,0.832,0.374,0.653,0.608,�k�k��,4.1,��
2021/06/15,10:30,0.640,0.944,0.596,1.161,0.832,0.374,0.653,0.610,�k�k��,4.1,��
2021/06/15,10:40,0.640,0.942,0.595,1.160,0.833,0.374,0.654,0.608,�k�k��,3.9,��
2021/06/15,10:50,0.639,0.945,0.597,1.159,0.831,0.373,0.654,0.607,�k��,3.2,��
2021/06/15,11:00,0.640,0.945,0.596,1.159,0.832,0.375,0.652,0.608,�k��,3.1,��
2021/06/15,11:10,0.639,0.947,0.597,1.158,0.833,0.374,0.654,0.608,�k��,2.5,��
2021/06/15,11:20,0.641,0.946,0.597,1.158,0.832,0.374,0.654,0.608,�k��,2.9,��
2021/06/15,11:30,0.640,0.949,0.596,1.156,0.834,0.374,0.655,0.607,���k��,3.4,��
2021/06/15,11:40,0.640,0.948,0.597,1.160,0.833,0.375,0.654,0.610,���k��,2.6,��
2021/06/15,11:50,0.641,0.948,0.598,1.159,0.833,0.374,0.654,0.608,�k��,2.3,��
2021/06/15,12:00,0.640,0.946,0.598,1.160,0.833,0.375,0.656,0.608,�k��,3.0,��
2021/06/15,12:10,0.641,0.949,0.597,1.159,0.834,0.374,0.655,0.609,�k��,2.3,��
2021/06/15,12:20,0.641,0.948,0.595,1.158,0.834,0.374,0.654,0.609,���k��,2.3,��
2021/06/15,12:30,0.642,0.949,0.598,1.159,0.834,0.376,0.654,0.609,���k��,1.9,��
2021/06/15,12:40,0.640,0.949,0.596,1.159,0.831,0.374,0.655,0.609,��,1.7,��
2021/06/15,12:50,0.640,0.952,0.598,1.159,0.834,0.374,0.653,0.608,�k��,1.1,��
2021/06/15,13:00,0.640,0.948,0.599,1.161,0.833,0.375,0.654,0.608,���k��,1.5,��
2021/06/15,13:10,0.639,0.950,0.597,1.161,0.835,0.374,0.653,0.609,���쓌,1.5,��
2021/06/15,13:20,0.640,0.949,0.598,1.161,0.833,0.373,0.654,0.608,���k��,1.2,��
2021/06/15,13:30,0.641,0.950,0.598,1.161,0.834,0.374,0.656,0.607,�k��,1.2,��
2021/06/15,13:40,0.641,0.950,0.598,1.160,0.834,0.375,0.654,0.608,�k��,0.6,��
2021/06/15,13:50,0.640,0.951,0.597,1.160,0.834,0.375,0.657,0.609,���k��,1.5,��
2021/06/15,14:00,0.639,0.950,0.597,1.161,0.836,0.375,0.652,0.608,���k��,1.4,��
2021/06/15,14:10,0.641,0.951,0.597,1.161,0.834,0.374,0.654,0.608,��,1.5,��
2021/06/15,14:20,0.639,0.950,0.598,1.160,0.835,0.376,0.653,0.608,��,2.6,��
2021/06/15,14:30,0.639,0.952,0.598,1.160,0.836,0.374,0.655,0.610,��,2.3,��
2021/06/15,14:40,0.638,0.949,0.597,1.158,0.834,0.375,0.653,0.609,�k�k��,1.7,��
2021/06/15,14:50,0.640,0.949,0.598,1.157,0.834,0.375,0.656,0.610,�k��,1.4,��
2021/06/15,15:00,0.640,0.949,0.599,1.159,0.836,0.374,0.654,0.609,�k,1.1,��
2021/06/15,15:10,0.641,0.952,0.596,1.157,0.833,0.375,0.654,0.609,�k�k��,0.9,��
2021/06/15,15:20,0.638,0.949,0.597,1.161,0.835,0.374,0.653,0.609,�k�k��,1.7,��
2021/06/15,15:30,0.639,0.951,0.596,1.163,0.834,0.374,0.654,0.608,�k��,1.5,��
2021/06/15,15:40,0.638,0.952,0.597,1.162,0.833,0.374,0.653,0.607,�k��,1.4,��
2021/06/15,15:50,0.640,0.953,0.597,1.163,0.833,0.376,0.655,0.608,�k�k��,0.8,��
2021/06/15,16:00,0.639,0.953,0.598,1.162,0.833,0.376,0.653,0.608,�k�k��,0.9,��
2021/06/15,16:10,0.640,0.954,0.601,1.162,0.834,0.376,0.653,0.610,-,CALM,��
2021/06/15,16:20,0.640,0.954,0.601,1.165,0.834,0.376,0.653,0.609,�k,1.1,��
2021/06/15,16:30,0.640,0.955,0.601,1.163,0.835,0.376,0.654,0.609,�k�k��,1.5,��
2021/06/15,16:40,0.640,0.955,0.601,1.163,0.835,0.376,0.655,0.610,�k�k��,0.6,��
2021/06/15,16:50,0.640,0.953,0.600,1.163,0.834,0.376,0.654,0.608,�k��,0.6,��
2021/06/15,17:00,0.641,0.955,0.600,1.161,0.836,0.376,0.653,0.609,�k��,1.4,��
2021/06/15,17:10,0.642,0.954,0.601,1.164,0.835,0.375,0.652,0.609,�k��,0.9,��
2021/06/15,17:20,0.643,0.954,0.600,1.162,0.838,0.376,0.655,0.610,�k�k��,1.4,��
2021/06/15,17:30,0.642,0.953,0.601,1.165,0.836,0.377,0.654,0.610,-,CALM,��
2021/06/15,17:40,0.642,0.956,0.601,1.164,0.835,0.375,0.654,0.610,-,CALM,��
2021/06/15,17:50,0.643,0.953,0.601,1.163,0.835,0.376,0.655,0.610,�k�k��,1.1,��
2021/06/15,18:00,0.642,0.954,0.601,1.163,0.837,0.376,0.656,0.609,-,CALM,��
2021/06/15,18:10,0.641,0.954,0.599,1.163,0.836,0.375,0.655,0.611,���쓌,1.2,��
2021/06/15,18:20,0.643,0.955,0.599,1.163,0.835,0.375,0.655,0.611,���쓌,1.5,��
2021/06/15,18:30,0.643,0.954,0.600,1.164,0.838,0.376,0.655,0.611,��쓌,2.3,��
2021/06/15,18:40,0.644,0.953,0.600,1.164,0.836,0.375,0.655,0.611,��,2.2,��
2021/06/15,18:50,0.643,0.955,0.601,1.164,0.837,0.375,0.656,0.612,��쐼,1.7,��
2021/06/15,19:00,0.643,0.954,0.601,1.166,0.836,0.375,0.655,0.612,��,1.7,��
2021/06/15,19:10,0.644,0.953,0.600,1.162,0.837,0.374,0.655,0.611,�쐼,1.7,��
2021/06/15,19:20,0.642,0.955,0.600,1.165,0.836,0.376,0.654,0.612,�쐼,1.2,��
2021/06/15,19:30,0.643,0.954,0.600,1.161,0.837,0.377,0.655,0.611,�쐼,0.9,��
2021/06/15,19:40,0.643,0.953,0.600,1.162,0.836,0.377,0.655,0.611,��쐼,0.6,��
2021/06/15,19:50,0.644,0.954,0.600,1.163,0.836,0.378,0.655,0.610,��쓌,0.8,��
2021/06/15,20:00,0.645,0.953,0.600,1.165,0.837,0.377,0.656,0.611,-,CALM,��
2021/06/15,20:10,0.643,0.952,0.600,1.164,0.836,0.377,0.656,0.610,-,CALM,��
2021/06/15,20:20,0.642,0.956,0.600,1.163,0.838,0.377,0.658,0.612,-,CALM,��
2021/06/15,20:30,0.641,0.954,0.600,1.161,0.835,0.377,0.657,0.610,-,CALM,��
2021/06/15,20:40,0.643,0.952,0.600,1.164,0.837,0.375,0.655,0.610,-,CALM,��
2021/06/15,20:50,0.642,0.954,0.599,1.164,0.836,0.376,0.656,0.611,-,CALM,��
2021/06/15,21:00,0.643,0.955,0.598,1.162,0.836,0.376,0.656,0.611,��쓌,0.6,��
2021/06/15,21:10,0.642,0.953,0.600,1.161,0.836,0.377,0.658,0.609,�쓌,0.6,��
2021/06/15,21:20,0.641,0.952,0.599,1.164,0.835,0.377,0.657,0.610,��쓌,0.9,��
2021/06/15,21:30,0.644,0.953,0.600,1.164,0.835,0.376,0.658,0.611,��,1.2,��
2021/06/15,21:40,0.641,0.954,0.600,1.164,0.836,0.375,0.656,0.611,��,1.5,��
2021/06/15,21:50,0.643,0.953,0.600,1.162,0.836,0.376,0.656,0.611,��,2.0,��
2021/06/15,22:00,0.642,0.953,0.600,1.165,0.834,0.377,0.657,0.611,��,2.2,��
2021/06/15,22:10,0.644,0.953,0.599,1.160,0.837,0.377,0.656,0.612,��,1.7,��
2021/06/15,22:20,0.643,0.954,0.599,1.166,0.838,0.376,0.658,0.611,��쐼,2.0,��
2021/06/15,22:30,0.643,0.952,0.601,1.162,0.835,0.376,0.656,0.612,��쐼,1.7,��
2021/06/15,22:40,0.644,0.954,0.599,1.162,0.836,0.377,0.656,0.609,��쐼,1.1,��
2021/06/15,22:50,0.643,0.952,0.598,1.164,0.836,0.376,0.656,0.611,��쐼,1.2,��
2021/06/15,23:00,0.641,0.953,0.600,1.162,0.836,0.377,0.655,0.609,��,0.9,��
2021/06/15,23:10,0.640,0.951,0.598,1.164,0.837,0.377,0.656,0.611,��,0.8,��
2021/06/15,23:20,0.642,0.953,0.600,1.161,0.836,0.377,0.656,0.611,��쓌,0.9,��
2021/06/15,23:30,0.643,0.954,0.600,1.163,0.835,0.376,0.656,0.611,-,CALM,��
2021/06/15,23:40,0.641,0.955,0.600,1.162,0.836,0.375,0.658,0.610,���k��,1.7,��
2021/06/15,23:50,0.642,0.952,0.598,1.164,0.834,0.375,0.656,0.609,�k�k��,1.2,��
